Погода в Малых Дербетах

Россия / Республика Калмыкия     47°57′04″N   44°40′34″E
темп.,
°C
ветер,
м/с
пор.,
м/с
влажн.,
%
обл.,
%
осадки,
мм/ч
давл.,
гПа
погр.,
м
18 апреля, вс
вс1800:00+10зюз337470 0.0 102133
03:00+8з33794 0.0 102128
06:00+9зюз118011 0.0 102011
09:00+13ююв226672 0.0 1020511
12:00+17ю3349100 0.1 10191732
15:00+17ююз2245100 0.1 10181469
18:00+16юв225594 0.0 101772
21:00+13ююз4675100 0.0 1017212
19 апреля, пн
пн1900:00+12юз238287 0.1 1016139
03:00+12юз2481100 0.1 1016129
06:00+11ююз2485100 0.0 1016171
09:00+12ююз2389100 0.3 1016255
12:00+13ююз3487100 0.1 1015502
15:00+15з1276100 0.1 1014590
18:00+15ю1178100 0.1 101427
21:00+13ююв3385100 0.1 101538
20 апреля, вт
вт2000:00+13ююв2288100 0.1 101435
03:00+13вюв3493100 0.1 1014128
06:00+12юв4696100 0.2 1013215
09:00+13вюв51096100 2.7 1013456
12:00+14вюв71392100 2.2 1012693
15:00+19юв111466100 2.3 10101537
18:00+17юв8156889 0.1 1009723
21:00+15юв81679100 0.3 1011810
21 апреля, ср
ср2100:00+14ююв61382100 1.1 1012579
03:00+13ююв51093100 4.3 1013355
06:00+13юз5789100 0.9 1015419
09:00+12зюз557180 1.3 1017761
12:00+14зюз3457100 0.0 10171322
15:00+17з4450100 0.0 10181704
18:00+15з245896 0.0 1019126
21:00+12сз346638 0.0 102163
22 апреля, чт
чт2200:00+12зсз346655 0.0 102178
03:00+10сз2276100 0.0 102225
06:00+10с22788 0.0 102345
09:00+15ссв2259100 0.0 1023647
12:00+16с2248100 0.0 10231496
15:00+18ссв22438 0.0 10221789
18:00+17ссв225281 0.0 102331
21:00+12вюв4870100 0.0 1023218